UAL2610 KSFO-KLAX

Flight info

Callsign UAL2610
Flight time 0h 58m
Altitude 35000
Route WESLA5 SUSEY EBAYE BURGL IRNMN2
Aircraft B739/M-SDE2E3FGHIRWXY/LB1

Departure

Time 2026-04-25 17:38
Airport San Francisco International Airport (KSFO)

Arrival

Time 2026-04-25 18:37
Airport Los Angeles International Airport (KLAX)
Time Latitude Longitude Altitude Speed Heading
2026-04-25 17:01 37.61858 -122.38168 21 ft 0 kts 166°
2026-04-25 17:27 37.61859 -122.38168 21 ft 2 kts 166°
2026-04-25 17:27 37.61881 -122.38179 23 ft 4 kts 142°
2026-04-25 17:27 37.61897 -122.38203 23 ft 4 kts 106°
2026-04-25 17:27 37.61899 -122.38223 21 ft 4 kts 77°
2026-04-25 17:28 37.61889 -122.38245 24 ft 0 kts 27°
2026-04-25 17:32 37.61900 -122.38238 21 ft 4 kts 27°
2026-04-25 17:32 37.61937 -122.38207 21 ft 8 kts 48°
2026-04-25 17:32 37.61939 -122.38140 21 ft 8 kts 114°
2026-04-25 17:33 37.61913 -122.38076 21 ft 9 kts 118°
2026-04-25 17:33 37.61875 -122.37987 22 ft 14 kts 118°
2026-04-25 17:33 37.61833 -122.37881 21 ft 13 kts 113°
2026-04-25 17:33 37.61800 -122.37773 21 ft 13 kts 111°
2026-04-25 17:34 37.61766 -122.37664 21 ft 15 kts 111°
2026-04-25 17:34 37.61721 -122.37522 21 ft 20 kts 113°
2026-04-25 17:34 37.61655 -122.37360 21 ft 21 kts 118°
2026-04-25 17:34 37.61589 -122.37201 21 ft 20 kts 118°
2026-04-25 17:35 37.61525 -122.37047 21 ft 20 kts 117°
2026-04-25 17:35 37.61454 -122.36908 21 ft 19 kts 131°
2026-04-25 17:35 37.61370 -122.36785 21 ft 18 kts 125°
2026-04-25 17:35 37.61310 -122.36647 21 ft 18 kts 117°
2026-04-25 17:36 37.61254 -122.36512 21 ft 17 kts 117°
2026-04-25 17:36 37.61199 -122.36383 22 ft 16 kts 118°
2026-04-25 17:36 37.61146 -122.36259 21 ft 16 kts 118°
2026-04-25 17:36 37.61095 -122.36140 22 ft 15 kts 118°
2026-04-25 17:37 37.61052 -122.36031 21 ft 13 kts 105°
2026-04-25 17:37 37.61071 -122.35930 21 ft 12 kts 49°
2026-04-25 17:37 37.61146 -122.35884 22 ft 12 kts
2026-04-25 17:37 37.61211 -122.35935 21 ft 12 kts 299°
2026-04-25 17:38 37.61267 -122.36067 22 ft 37 kts 298°
2026-04-25 17:38 37.61406 -122.36399 21 ft 89 kts 297°
2026-04-25 17:38 37.61965 -122.37736 69 ft 162 kts 296°
2026-04-25 17:38 37.62530 -122.39035 653 ft 173 kts 298°
2026-04-25 17:39 37.63128 -122.40384 1382 ft 179 kts 296°
2026-04-25 17:39 37.63715 -122.41764 2162 ft 182 kts 296°
2026-04-25 17:39 37.64351 -122.43250 2442 ft 208 kts 297°
2026-04-25 17:39 37.65083 -122.44933 2786 ft 226 kts 297°
2026-04-25 17:40 37.65857 -122.46700 3339 ft 235 kts 297°
2026-04-25 17:40 37.66629 -122.48525 4077 ft 238 kts 291°
2026-04-25 17:40 37.66813 -122.50649 4627 ft 253 kts 258°
2026-04-25 17:40 37.66059 -122.52665 5337 ft 261 kts 229°
2026-04-25 17:41 37.64619 -122.53979 6038 ft 269 kts 201°
2026-04-25 17:41 37.62750 -122.54275 6768 ft 276 kts 173°
2026-04-25 17:41 37.60924 -122.53640 7591 ft 278 kts 159°
2026-04-25 17:41 37.59134 -122.52691 8391 ft 281 kts 156°
2026-04-25 17:42 37.57329 -122.51696 9196 ft 285 kts 157°
2026-04-25 17:42 37.55491 -122.50722 10005 ft 288 kts 158°
2026-04-25 17:42 37.53601 -122.49758 10506 ft 303 kts 158°
2026-04-25 17:42 37.51787 -122.48851 10660 ft 324 kts 159°
2026-04-25 17:43 37.49581 -122.47706 10890 ft 345 kts 153°
2026-04-25 17:43 37.47668 -122.45835 11436 ft 353 kts 134°
2026-04-25 17:43 37.45992 -122.43570 12207 ft 354 kts 132°
2026-04-25 17:43 37.44327 -122.41269 12952 ft 357 kts 132°
2026-04-25 17:44 37.42669 -122.38971 13663 ft 361 kts 131°
2026-04-25 17:44 37.40971 -122.36627 14296 ft 365 kts 131°
2026-04-25 17:44 37.39248 -122.34259 14934 ft 368 kts 131°
2026-04-25 17:44 37.37511 -122.31883 15565 ft 371 kts 131°
2026-04-25 17:45 37.35757 -122.29492 16204 ft 373 kts 131°
2026-04-25 17:45 37.35158 -122.28678 16428 ft 374 kts 131°
2026-04-25 17:45 37.32200 -122.24662 17434 ft 381 kts 131°
2026-04-25 17:45 37.30414 -122.22244 18024 ft 384 kts 132°
2026-04-25 17:46 37.28588 -122.19773 18557 ft 388 kts 132°
2026-04-25 17:46 37.26745 -122.17281 19049 ft 392 kts 133°
2026-04-25 17:46 37.24880 -122.14764 19525 ft 396 kts 133°
2026-04-25 17:46 37.22993 -122.12218 20004 ft 400 kts 133°
2026-04-25 17:47 37.21086 -122.09646 20481 ft 405 kts 134°
2026-04-25 17:47 37.19156 -122.07047 20982 ft 408 kts 134°
2026-04-25 17:47 37.17212 -122.04430 21465 ft 412 kts 134°
2026-04-25 17:47 37.15253 -122.01795 21937 ft 416 kts 134°
2026-04-25 17:48 37.11299 -121.96481 22886 ft 423 kts 134°
2026-04-25 17:48 37.09282 -121.93775 23354 ft 427 kts 134°
2026-04-25 17:48 37.07248 -121.91047 23766 ft 430 kts 135°
2026-04-25 17:49 37.05204 -121.88309 24217 ft 431 kts 135°
2026-04-25 17:49 37.03152 -121.85562 24707 ft 431 kts 135°
2026-04-25 17:49 37.01129 -121.82854 25162 ft 432 kts 135°
2026-04-25 17:49 36.99050 -121.80076 25609 ft 433 kts 135°
2026-04-25 17:50 36.97014 -121.77356 26026 ft 435 kts 136°
2026-04-25 17:50 36.94941 -121.74592 26437 ft 436 kts 136°
2026-04-25 17:50 36.92861 -121.71820 26840 ft 438 kts 136°
2026-04-25 17:50 36.90774 -121.69040 27250 ft 439 kts 136°
2026-04-25 17:51 36.88679 -121.66252 27642 ft 441 kts 136°
2026-04-25 17:51 36.86574 -121.63453 28015 ft 443 kts 136°
2026-04-25 17:51 36.84459 -121.60643 28353 ft 445 kts 137°
2026-04-25 17:51 36.82361 -121.57860 28685 ft 448 kts 137°
2026-04-25 17:52 36.80217 -121.55017 28992 ft 451 kts 137°
2026-04-25 17:52 36.79491 -121.54056 29094 ft 452 kts 137°
2026-04-25 17:52 36.75888 -121.49284 29603 ft 456 kts 137°
2026-04-25 17:52 36.73708 -121.46400 29958 ft 458 kts 137°
2026-04-25 17:53 36.71525 -121.43514 30332 ft 457 kts 137°
2026-04-25 17:53 36.69344 -121.40632 30682 ft 457 kts 137°
2026-04-25 17:53 36.67189 -121.37788 30998 ft 457 kts 137°
2026-04-25 17:53 36.65005 -121.34910 31296 ft 458 kts 138°
2026-04-25 17:54 36.62812 -121.32022 31610 ft 459 kts 138°
2026-04-25 17:54 36.60620 -121.29138 31969 ft 458 kts 138°
2026-04-25 17:54 36.58433 -121.26261 32323 ft 457 kts 139°
2026-04-25 17:54 36.56246 -121.23389 32644 ft 457 kts 139°
2026-04-25 17:55 36.54063 -121.20524 32958 ft 457 kts 139°
2026-04-25 17:55 36.51879 -121.17660 33309 ft 456 kts 139°
2026-04-25 17:55 36.49726 -121.14838 33586 ft 456 kts 139°
2026-04-25 17:55 36.47540 -121.11977 33869 ft 456 kts 139°
2026-04-25 17:56 36.45353 -121.09115 34134 ft 456 kts 139°
2026-04-25 17:56 36.43171 -121.06265 34380 ft 456 kts 139°
2026-04-25 17:56 36.41021 -121.03347 34614 ft 458 kts 137°
2026-04-25 17:56 36.38937 -121.00364 34802 ft 459 kts 136°
2026-04-25 17:57 36.36865 -120.97337 34984 ft 460 kts 136°
2026-04-25 17:57 36.32721 -120.91281 34982 ft 460 kts 136°
2026-04-25 17:58 36.28598 -120.85323 34985 ft 457 kts 136°
2026-04-25 17:58 36.24452 -120.79383 34987 ft 454 kts 136°
2026-04-25 17:59 36.20319 -120.73480 34985 ft 453 kts 137°
2026-04-25 17:59 36.16220 -120.67637 34980 ft 452 kts 137°
2026-04-25 18:00 36.12102 -120.61773 34982 ft 451 kts 137°
2026-04-25 18:00 36.07980 -120.55915 34984 ft 452 kts 137°
2026-04-25 18:01 36.03858 -120.50066 34982 ft 452 kts 137°
2026-04-25 18:01 35.99755 -120.44254 34988 ft 452 kts 137°
2026-04-25 18:02 35.95616 -120.38399 34999 ft 454 kts 137°
2026-04-25 18:02 35.91447 -120.32512 34980 ft 457 kts 137°
2026-04-25 18:03 35.87186 -120.26714 34976 ft 453 kts 144°
2026-04-25 18:03 35.82154 -120.22363 34987 ft 442 kts 155°
2026-04-25 18:04 35.76869 -120.18500 34978 ft 442 kts 155°
2026-04-25 18:04 35.71612 -120.14578 34975 ft 442 kts 155°
2026-04-25 18:05 35.66376 -120.10635 34975 ft 441 kts 155°
2026-04-25 18:05 35.61198 -120.06726 34976 ft 439 kts 155°
2026-04-25 18:06 35.56001 -120.02800 34972 ft 438 kts 155°
2026-04-25 18:06 35.50815 -119.98891 34981 ft 437 kts 155°
2026-04-25 18:07 35.45637 -119.94994 34981 ft 437 kts 155°
2026-04-25 18:07 35.40457 -119.91101 34970 ft 436 kts 155°
2026-04-25 18:08 35.35313 -119.87241 34975 ft 437 kts 155°
2026-04-25 18:08 35.30121 -119.83351 34973 ft 438 kts 155°
2026-04-25 18:09 35.25056 -119.79117 34963 ft 444 kts 149°
2026-04-25 18:09 35.20215 -119.74458 34955 ft 446 kts 149°
2026-04-25 18:10 35.15323 -119.69773 34794 ft 450 kts 149°
2026-04-25 18:10 35.12809 -119.67414 34075 ft 458 kts 149°
2026-04-25 18:10 35.10278 -119.65050 33256 ft 458 kts 149°
2026-04-25 18:10 35.07765 -119.62706 32721 ft 451 kts 149°
2026-04-25 18:11 35.05313 -119.60421 32105 ft 447 kts 150°
2026-04-25 18:11 35.02852 -119.58133 31554 ft 442 kts 150°
2026-04-25 18:11 35.00414 -119.55869 30974 ft 438 kts 150°
2026-04-25 18:11 34.98004 -119.53633 30440 ft 434 kts 150°
2026-04-25 18:12 34.95606 -119.51410 29884 ft 431 kts 150°
2026-04-25 18:12 34.93225 -119.49205 29253 ft 428 kts 150°
2026-04-25 18:12 34.90863 -119.47022 28717 ft 423 kts 150°
2026-04-25 18:12 34.88522 -119.44904 28206 ft 417 kts 151°
2026-04-25 18:13 34.86194 -119.42827 27708 ft 412 kts 151°
2026-04-25 18:13 34.83892 -119.40779 27220 ft 408 kts 151°
2026-04-25 18:13 34.81643 -119.38778 26739 ft 404 kts 151°
2026-04-25 18:14 34.77153 -119.34771 25797 ft 397 kts 150°
2026-04-25 18:14 34.74929 -119.32786 25331 ft 394 kts 150°
2026-04-25 18:14 34.72718 -119.30837 24869 ft 391 kts 150°
2026-04-25 18:14 34.70518 -119.28920 24419 ft 388 kts 150°
2026-04-25 18:15 34.68333 -119.27016 23954 ft 386 kts 150°
2026-04-25 18:15 34.66162 -119.25123 23492 ft 383 kts 150°
2026-04-25 18:15 34.64002 -119.23243 22973 ft 381 kts 150°
2026-04-25 18:15 34.61880 -119.21412 22473 ft 378 kts 150°
2026-04-25 18:16 34.59746 -119.19574 22042 ft 375 kts 150°
2026-04-25 18:16 34.57626 -119.17749 21585 ft 372 kts 151°
2026-04-25 18:16 34.53453 -119.14103 20712 ft 368 kts 150°
2026-04-25 18:17 34.51395 -119.12272 20272 ft 366 kts 150°
2026-04-25 18:17 34.49346 -119.10452 19859 ft 364 kts 150°
2026-04-25 18:17 34.47301 -119.08639 19420 ft 364 kts 150°
2026-04-25 18:17 34.45285 -119.06856 19015 ft 363 kts 150°
2026-04-25 18:18 34.43239 -119.05057 18575 ft 363 kts 150°
2026-04-25 18:18 34.41188 -119.03279 18107 ft 363 kts 151°
2026-04-25 18:18 34.39138 -119.01508 17635 ft 361 kts 151°
2026-04-25 18:18 34.37097 -118.99743 17184 ft 359 kts 151°
2026-04-25 18:19 34.35069 -118.97989 16743 ft 357 kts 151°
2026-04-25 18:19 34.33067 -118.96231 16331 ft 355 kts 150°
2026-04-25 18:19 34.31100 -118.94442 15898 ft 352 kts 149°
2026-04-25 18:19 34.29157 -118.92664 15489 ft 349 kts 150°
2026-04-25 18:20 34.27250 -118.90928 15081 ft 346 kts 150°
2026-04-25 18:20 34.25333 -118.89187 14670 ft 343 kts 150°
2026-04-25 18:20 34.23487 -118.87497 14281 ft 341 kts 150°
2026-04-25 18:20 34.21991 -118.86120 13961 ft 339 kts 150°
2026-04-25 18:21 34.20123 -118.84400 13526 ft 336 kts 150°
2026-04-25 18:21 34.18273 -118.82702 13103 ft 333 kts 149°
2026-04-25 18:21 34.16434 -118.81009 12681 ft 331 kts 148°
2026-04-25 18:21 34.14673 -118.79206 12274 ft 332 kts 144°
2026-04-25 18:22 34.12996 -118.77356 11874 ft 330 kts 143°
2026-04-25 18:22 34.12429 -118.76722 11738 ft 329 kts 143°
2026-04-25 18:22 34.09670 -118.73659 11080 ft 318 kts 142°
2026-04-25 18:22 34.08052 -118.71888 10715 ft 311 kts 143°
2026-04-25 18:23 34.06457 -118.70155 10363 ft 306 kts 142°
2026-04-25 18:23 34.04895 -118.68459 10005 ft 298 kts 142°
2026-04-25 18:23 34.03487 -118.66695 9784 ft 290 kts 127°
2026-04-25 18:23 34.02743 -118.64443 9287 ft 295 kts 102°
2026-04-25 18:24 34.02481 -118.61980 8931 ft 291 kts 97°
2026-04-25 18:24 34.02287 -118.59598 8574 ft 287 kts 97°
2026-04-25 18:24 34.02082 -118.57204 8229 ft 287 kts 97°
2026-04-25 18:24 34.01868 -118.54814 7917 ft 285 kts 97°
2026-04-25 18:25 34.01653 -118.52463 7686 ft 281 kts 97°
2026-04-25 18:25 34.01436 -118.50140 7445 ft 277 kts 97°
2026-04-25 18:25 34.01220 -118.47856 7216 ft 273 kts 97°
2026-04-25 18:25 34.01048 -118.45601 6980 ft 269 kts 88°
2026-04-25 18:26 34.01309 -118.43388 6768 ft 264 kts 77°
2026-04-25 18:26 34.01711 -118.41267 6545 ft 260 kts 77°
2026-04-25 18:26 34.02095 -118.39232 6333 ft 257 kts 77°
2026-04-25 18:26 34.02474 -118.37137 6049 ft 255 kts 78°
2026-04-25 18:27 34.02813 -118.35138 5777 ft 253 kts 82°
2026-04-25 18:27 34.03045 -118.33052 5502 ft 249 kts 84°
2026-04-25 18:27 34.03243 -118.30993 5233 ft 245 kts 84°
2026-04-25 18:27 34.03430 -118.28975 4948 ft 240 kts 85°
2026-04-25 18:28 34.03602 -118.26999 4663 ft 234 kts 86°
2026-04-25 18:28 34.03750 -118.25074 4379 ft 229 kts 87°
2026-04-25 18:28 34.03884 -118.23207 4093 ft 225 kts 88°
2026-04-25 18:29 34.04103 -118.19507 3522 ft 217 kts 88°
2026-04-25 18:29 34.04191 -118.17728 3236 ft 210 kts 91°
2026-04-25 18:30 34.04510 -118.12533 2655 ft 212 kts 86°
2026-04-25 18:30 34.04633 -118.10751 2606 ft 213 kts 90°
2026-04-25 18:30 34.04427 -118.09034 2571 ft 204 kts 120°
2026-04-25 18:30 34.03506 -118.07873 2574 ft 193 kts 155°
2026-04-25 18:31 34.02226 -118.07667 2609 ft 191 kts 192°
2026-04-25 18:31 34.01063 -118.08503 2609 ft 201 kts 227°
2026-04-25 18:31 34.00201 -118.09856 2597 ft 205 kts 231°
2026-04-25 18:31 33.99354 -118.11250 2591 ft 206 kts 231°
2026-04-25 18:32 33.98514 -118.12640 2592 ft 204 kts 231°
2026-04-25 18:32 33.97691 -118.14006 2598 ft 200 kts 232°
2026-04-25 18:32 33.96870 -118.15357 2596 ft 201 kts 232°
2026-04-25 18:32 33.96127 -118.16783 2562 ft 205 kts 249°
2026-04-25 18:33 33.95843 -118.18415 2593 ft 198 kts 257°
2026-04-25 18:33 33.95631 -118.20012 2581 ft 190 kts 259°
2026-04-25 18:33 33.95455 -118.21570 2578 ft 186 kts 259°
2026-04-25 18:33 33.95293 -118.23116 2574 ft 188 kts 259°
2026-04-25 18:34 33.95133 -118.24668 2373 ft 182 kts 259°
2026-04-25 18:34 33.94982 -118.26141 2123 ft 172 kts 260°
2026-04-25 18:34 33.94839 -118.27526 1888 ft 160 kts 259°
2026-04-25 18:34 33.94710 -118.28787 1721 ft 148 kts 259°
2026-04-25 18:35 33.94585 -118.29984 1484 ft 145 kts 259°
2026-04-25 18:35 33.94463 -118.31176 1320 ft 144 kts 258°
2026-04-25 18:35 33.94339 -118.32382 1122 ft 145 kts 261°
2026-04-25 18:35 33.94215 -118.33597 922 ft 146 kts 261°
2026-04-25 18:36 33.94091 -118.34794 724 ft 145 kts 261°
2026-04-25 18:36 33.93968 -118.35978 519 ft 141 kts 260°
2026-04-25 18:36 33.93855 -118.37164 318 ft 144 kts 261°
2026-04-25 18:36 33.93731 -118.38358 137 ft 142 kts 259°
2026-04-25 18:37 33.93625 -118.39380 108 ft 96 kts 263°
2026-04-25 18:37 33.93563 -118.39968 111 ft 54 kts 263°
2026-04-25 18:37 33.93533 -118.40338 110 ft 33 kts 270°
2026-04-25 18:37 33.93566 -118.40553 108 ft 23 kts 290°
2026-04-25 18:38 33.93598 -118.40718 105 ft 19 kts 266°
2026-04-25 18:38 33.93611 -118.40856 105 ft 15 kts 297°
2026-04-25 18:38 33.93700 -118.40901 106 ft 13 kts 353°
2026-04-25 18:38 33.93783 -118.40883 101 ft 14 kts 55°
2026-04-25 18:39 33.93802 -118.40747 102 ft 19 kts 83°
2026-04-25 18:39 33.93818 -118.40587 102 ft 20 kts 83°
2026-04-25 18:39 33.93833 -118.40427 103 ft 19 kts 83°
2026-04-25 18:39 33.93850 -118.40273 103 ft 18 kts 82°
2026-04-25 18:40 33.93863 -118.40151 103 ft 18 kts 83°
2026-04-25 18:40 33.93878 -118.40006 104 ft 17 kts 82°
2026-04-25 18:40 33.93892 -118.39866 103 ft 17 kts 84°
2026-04-25 18:40 33.93904 -118.39744 102 ft 12 kts 82°
2026-04-25 18:41 33.93914 -118.39645 102 ft 12 kts 83°
2026-04-25 18:41 33.93922 -118.39565 102 ft 8 kts 80°
2026-04-25 18:41 33.93959 -118.39522 100 ft 10 kts
2026-04-25 18:41 33.94002 -118.39594 95 ft 12 kts 265°
2026-04-25 18:42 33.93992 -118.39695 95 ft 12 kts 263°
2026-04-25 18:42 33.93988 -118.39729 95 ft 12 kts 263°
2026-04-25 18:42 33.94043 -118.39826 95 ft 9 kts 358°
2026-04-25 18:42 33.94103 -118.39827 96 ft 6 kts 354°
2026-04-25 18:43 33.94132 -118.39831 95 ft 4 kts 353°
2026-04-25 18:43 33.94145 -118.39853 97 ft 3 kts 287°
2026-04-25 18:43 33.94151 -118.39877 97 ft 2 kts 285°
2026-04-25 18:43 33.94154 -118.39890 97 ft 1 kts 285°
2026-04-25 18:44 33.94154 -118.39892 97 ft 0 kts 285°